Windom, MN

5:15 AM CDT on July 27, 2017 (GMT -0500)
Windom Municipal

Weather History for KMWM - November, 2012

Change the Weather History Date:

Friday, November 23, 2012

  Actual Average Record
Temperature  
Mean Temperature 18 °F -  
Max Temperature 26 °F 36 °F 62 °F (1974)
Min Temperature 10 °F 19 °F -7 °F (1950)
Degree Days  
Heating Degree Days 47    
Moisture  
Dew Point 12 °F    
Average Humidity 72    
Maximum Humidity 92    
Minimum Humidity 55    
Precipitation  
Precipitation 0.00 in - - ()
Sea Level Pressure  
Sea Level Pressure 30.31 in    
Wind  
Wind Speed 23 mph (NW)    
Max Wind Speed 34 mph    
Max Gust Speed 44 mph    
Visibility 10 miles    
Events Snow    
Averages and records for this station are not official NWS values.
T = Trace of Precipitation, MM = Missing Value Source: NWS Daily Summary

Daily Weather History Graph

Daily Weather History Graph

Search for Another Location

Airport or City:

Trip Planner

Search our weather history database for the weather conditions in past years. The results will help you decide how hot, cold, wet, or windy it might be!

Date:

Astronomy

Nov. 23, 2012 Rise Set
Actual Time 7:26 AM CST 4:47 PM CST
Civil Twilight 6:54 AM CST 5:19 PM CST
Nautical Twilight 6:18 AM CST 5:54 PM CST
Astronomical Twilight 5:44 AM CST 6:29 PM CST
Moon 2:09 PM CST (11/23) 2:37 AM CST (11/23)
Length of Visible Light 10h 25m
Length of Day
9h 21m
Waxing Gibbous, 80% of the Moon is Illuminated
Nov 23
Waxing Gibbous
Nov 28
Full
Dec 6
Last Quarter
Dec 13
New
Dec 19
First Quarter

Hourly Weather History & Observations

Time (CST) Temp. Windchill Dew Point Humidity Pressure Visibility Wind Dir Wind Speed Gust Speed Precip Events Conditions
12:12 AM 26.6 °F 10.3 °F 17.6 °F 69% 30.12 in 10.0 mi WNW 29.9 mph 39.1 mph N/A   Overcast
12:33 AM 24.8 °F 10.7 °F 17.6 °F 74% 30.13 in 10.0 mi NW 19.6 mph 32.2 mph N/A   Overcast
12:53 AM 24.8 °F 9.3 °F 17.6 °F 74% 30.13 in 10.0 mi WNW 24.2 mph 33.4 mph N/A   Overcast
1:12 AM 24.8 °F 7.3 °F 15.8 °F 69% 30.14 in 10.0 mi WNW 32.2 mph 42.6 mph N/A   Overcast
1:53 AM 23.0 °F 6.3 °F 15.8 °F 74% 30.16 in 10.0 mi NW 26.5 mph 38.0 mph N/A   Overcast
2:12 AM 23.0 °F 5.7 °F 15.8 °F 74% 30.16 in 10.0 mi NW 28.8 mph 41.4 mph N/A   Overcast
2:32 AM 23.0 °F 5.7 °F 15.8 °F 74% 30.18 in 10.0 mi NW 28.8 mph 39.1 mph N/A   Overcast
2:53 AM 21.2 °F 1.9 °F 14.0 °F 74% 30.19 in 10.0 mi NW 34.5 mph 43.7 mph N/A   Mostly Cloudy
3:12 AM 21.2 °F 3.9 °F 14.0 °F 74% 30.19 in 10.0 mi NW 26.5 mph 40.3 mph N/A   Scattered Clouds
3:32 AM 21.2 °F 3.3 °F 12.2 °F 68% 30.20 in 10.0 mi NW 28.8 mph 41.4 mph N/A   Mostly Cloudy
3:53 AM 21.2 °F 3.9 °F 12.2 °F 68% 30.21 in 10.0 mi WNW 26.5 mph 40.3 mph N/A   Overcast
4:12 AM 19.4 °F 1.1 °F 12.2 °F 74% 30.21 in 10.0 mi NW 27.6 mph 36.8 mph N/A   Overcast
4:32 AM 19.4 °F 2.8 °F 12.2 °F 74% 30.22 in 10.0 mi NW 21.9 mph 35.7 mph N/A   Mostly Cloudy
4:53 AM 19.4 °F -0.0 °F 12.2 °F 74% 30.23 in 10.0 mi NW 32.2 mph 40.3 mph N/A   Mostly Cloudy
5:12 AM 21.2 °F 3.9 °F 14.0 °F 74% 30.24 in 10.0 mi NW 26.5 mph 35.7 mph N/A Snow Light Snow
5:32 AM 19.4 °F 1.8 °F 12.2 °F 74% 30.25 in 10.0 mi NW 25.3 mph 32.2 mph N/A Snow Light Snow
5:53 AM 19.4 °F 1.4 °F 14.0 °F 80% 30.25 in 7.0 mi NW 26.5 mph 35.7 mph N/A Snow Light Snow
6:12 AM 19.4 °F 0.8 °F 12.2 °F 74% 30.26 in 10.0 mi NW 28.8 mph 36.8 mph N/A Snow Light Snow
6:32 AM 19.4 °F 1.4 °F 12.2 °F 74% 30.26 in 10.0 mi NW 26.5 mph 42.6 mph N/A Snow Light Snow
6:53 AM 19.4 °F 1.4 °F 12.2 °F 74% 30.28 in 10.0 mi NW 26.5 mph 38.0 mph N/A   Overcast
7:12 AM 19.4 °F 0.8 °F 12.2 °F 74% 30.28 in 10.0 mi NW 28.8 mph 34.5 mph N/A Snow Light Snow
7:32 AM 19.4 °F 2.1 °F 12.2 °F 74% 30.30 in 10.0 mi NW 24.2 mph 36.8 mph N/A Snow Light Snow
7:53 AM 17.6 °F -0.6 °F 12.2 °F 79% 30.30 in 10.0 mi NW 25.3 mph 32.2 mph N/A   Overcast
8:12 AM 17.6 °F -0.3 °F 12.2 °F 79% 30.31 in 10.0 mi NW 24.2 mph 33.4 mph N/A Snow Light Snow
8:32 AM 19.4 °F 1.8 °F 12.2 °F 74% 30.32 in 10.0 mi NW 25.3 mph 33.4 mph N/A Snow Light Snow
8:53 AM 19.4 °F 2.5 °F 12.2 °F 74% 30.33 in 10.0 mi NW 23.0 mph 34.5 mph N/A Snow Light Snow
9:12 AM 19.4 °F 1.4 °F 12.2 °F 74% 30.33 in 10.0 mi NW 26.5 mph 36.8 mph N/A Snow Light Snow
9:33 AM 19.4 °F 0.5 °F 12.2 °F 74% 30.34 in 10.0 mi NW 29.9 mph 34.5 mph N/A Snow Light Snow
9:52 AM 19.4 °F 1.1 °F 12.2 °F 74% 30.35 in 10.0 mi NW 27.6 mph 33.4 mph N/A Snow Light Snow
10:12 AM 21.2 °F 4.5 °F 12.2 °F 68% 30.36 in 10.0 mi NW 24.2 mph 31.1 mph N/A Snow Light Snow
10:33 AM 21.2 °F 4.5 °F 12.2 °F 68% 30.36 in 10.0 mi NW 24.2 mph 31.1 mph N/A   Mostly Cloudy
10:52 AM 23.0 °F 7.6 °F 12.2 °F 63% 30.37 in 10.0 mi NW 21.9 mph 32.2 mph N/A   Scattered Clouds
11:12 AM 23.0 °F 8.3 °F 12.2 °F 63% 30.37 in 10.0 mi NW 19.6 mph 28.8 mph N/A   Clear
11:33 AM 24.8 °F 10.0 °F 12.2 °F 59% 30.37 in 10.0 mi NW 21.9 mph 29.9 mph N/A   Clear
11:52 AM 24.8 °F 9.3 °F 12.2 °F 59% 30.37 in 10.0 mi NW 24.2 mph 31.1 mph N/A   Scattered Clouds
12:13 PM 24.8 °F 10.7 °F 12.2 °F 59% 30.37 in 10.0 mi NW 19.6 mph 28.8 mph N/A   Scattered Clouds
12:33 PM 24.8 °F 10.3 °F 12.2 °F 59% 30.37 in 10.0 mi NW 20.7 mph 29.9 mph N/A   Scattered Clouds
12:52 PM 24.8 °F 10.3 °F 12.2 °F 59% 30.37 in 10.0 mi NW 20.7 mph 28.8 mph N/A   Scattered Clouds
1:13 PM 24.8 °F 10.7 °F 12.2 °F 59% 30.36 in 10.0 mi NW 19.6 mph 24.2 mph N/A   Scattered Clouds
1:33 PM 26.6 °F 12.0 °F 12.2 °F 55% 30.36 in 10.0 mi NW 23.0 mph 28.8 mph N/A   Scattered Clouds
1:52 PM 26.6 °F 13.1 °F 12.2 °F 55% 30.36 in 10.0 mi NW 19.6 mph 26.5 mph N/A   Scattered Clouds
2:13 PM 26.6 °F 12.0 °F 12.2 °F 55% 30.36 in 10.0 mi NNW 23.0 mph 28.8 mph N/A   Scattered Clouds
2:33 PM 26.6 °F 13.1 °F 12.2 °F 55% 30.36 in 10.0 mi NW 19.6 mph 26.5 mph N/A   Scattered Clouds
2:52 PM 26.6 °F 12.7 °F 12.2 °F 55% 30.36 in 10.0 mi NW 20.7 mph 25.3 mph N/A   Scattered Clouds
3:13 PM 26.6 °F 13.4 °F 12.2 °F 55% 30.37 in 10.0 mi NW 18.4 mph - N/A   Clear
3:33 PM 24.8 °F 11.1 °F 12.2 °F 59% 30.37 in 10.0 mi NW 18.4 mph 26.5 mph N/A   Clear
3:52 PM 24.8 °F 11.9 °F 12.2 °F 59% 30.37 in 10.0 mi NW 16.1 mph 24.2 mph N/A   Clear
4:13 PM 23.0 °F 9.6 °F 12.2 °F 63% 30.38 in 10.0 mi NW 16.1 mph 23.0 mph N/A   Clear
4:32 PM 23.0 °F 10.1 °F 12.2 °F 63% 30.38 in 10.0 mi NW 15.0 mph 19.6 mph N/A   Clear
4:53 PM 21.2 °F 8.3 °F 12.2 °F 68% 30.37 in 10.0 mi NW 13.8 mph - N/A   Clear
5:12 PM 21.2 °F 9.5 °F 12.2 °F 68% 30.37 in 10.0 mi NW 11.5 mph - N/A   Clear
5:32 PM 19.4 °F 7.2 °F 12.2 °F 74% 30.37 in 10.0 mi NW 11.5 mph - N/A   Clear
5:52 PM 19.4 °F 8.6 °F 12.2 °F 74% 30.37 in 10.0 mi NW 9.2 mph - N/A   Clear
6:33 PM 19.4 °F 7.9 °F 12.2 °F 74% 30.37 in 10.0 mi NW 10.4 mph - N/A   Clear
6:52 PM 17.6 °F 6.4 °F 12.2 °F 79% 30.37 in 10.0 mi NW 9.2 mph - N/A   Clear
7:12 PM 17.6 °F 5.7 °F 12.2 °F 79% 30.37 in 10.0 mi NW 10.4 mph - N/A   Clear
7:33 PM 17.6 °F 7.3 °F 12.2 °F 79% 30.37 in 10.0 mi NNW 8.1 mph - N/A   Clear
7:52 PM 15.8 °F 5.1 °F 12.2 °F 86% 30.37 in 10.0 mi NW 8.1 mph - N/A   Clear
8:12 PM 15.8 °F 5.1 °F 10.4 °F 79% 30.37 in 10.0 mi NW 8.1 mph - N/A   Clear
8:33 PM 15.8 °F 6.1 °F 10.4 °F 79% 30.37 in 10.0 mi NW 6.9 mph - N/A   Clear
8:52 PM 15.8 °F 7.2 °F 10.4 °F 79% 30.36 in 10.0 mi NW 5.8 mph - N/A   Clear
9:12 PM 14.0 °F 5.1 °F 10.4 °F 86% 30.35 in 10.0 mi NNW 5.8 mph - N/A   Clear
9:33 PM 14.0 °F 3.9 °F 10.4 °F 86% 30.35 in 10.0 mi NW 6.9 mph - N/A   Clear
9:52 PM 14.0 °F 3.9 °F 10.4 °F 86% 30.35 in 10.0 mi NW 6.9 mph - N/A   Clear
10:12 PM 12.2 °F 4.3 °F 10.4 °F 92% 30.34 in 10.0 mi NW 4.6 mph - N/A   Clear
10:33 PM 12.2 °F 2.9 °F 10.4 °F 92% 30.35 in 10.0 mi NW 5.8 mph - N/A   Clear
10:52 PM 12.2 °F 1.7 °F 10.4 °F 92% 30.34 in 10.0 mi NW 6.9 mph - N/A   Clear
11:12 PM 12.2 °F 2.9 °F 8.6 °F 85% 30.34 in 10.0 mi NW 5.8 mph - N/A   Clear
11:33 PM 10.4 °F 4.0 °F 8.6 °F 92% 30.34 in 10.0 mi WNW 3.5 mph - N/A   Clear
11:52 PM 10.4 °F 2.2 °F 8.6 °F 92% 30.34 in 10.0 mi WNW 4.6 mph - N/A   Clear